TimeHST,TemperatureF,Dew PointF,Humidity,Sea Level PressureIn,VisibilityMPH,Wind Direction,Wind SpeedMPH,Gust SpeedMPH,PrecipitationIn,Events,Conditions,WindDirDegrees,DateUTC
12:58 AM,69.8,66.2,88,30.03,10.0,WNW,3.5,-,0.01,,Clear,300,2013-09-21 10:58:00
1:50 AM,68.0,66.2,94,30.04,10.0,NW,5.8,-,N/A,Rain,Light Rain,310,2013-09-21 11:50:00
1:51 AM,68.0,66.2,94,30.04,10.0,NW,5.8,-,N/A,,Scattered Clouds,310,2013-09-21 11:51:00
1:52 AM,68.0,66.2,94,30.04,10.0,NW,5.8,-,N/A,,Light Drizzle,320,2013-09-21 11:52:00
1:53 AM,68.0,66.2,94,30.04,10.0,Variable,4.6,-,N/A,,Scattered Clouds,0,2013-09-21 11:53:00
1:58 AM,68.0,66.2,94,30.01,10.0,NW,2.3,-,0.00,,Scattered Clouds,320,2013-09-21 11:58:00
1:59 AM,68.0,66.2,94,30.04,10.0,NW,2.3,-,N/A,,Light Drizzle,320,2013-09-21 11:59:00
2:00 AM,68.0,66.2,94,30.04,10.0,Variable,2.3,-,N/A,,Scattered Clouds,0,2013-09-21 12:00:00
2:31 AM,68.0,66.2,94,30.03,10.0,NW,5.8,-,N/A,,Light Drizzle,310,2013-09-21 12:31:00
2:32 AM,68.0,66.2,94,30.03,10.0,WNW,5.8,-,N/A,,Partly Cloudy,300,2013-09-21 12:32:00
2:58 AM,68.0,66.2,94,29.99,10.0,WNW,6.9,-,0.00,,Partly Cloudy,300,2013-09-21 12:58:00
3:58 AM,68.0,66.2,94,30.00,10.0,SW,2.3,-,0.00,,Partly Cloudy,220,2013-09-21 13:58:00
4:58 AM,68.0,66.2,94,29.99,10.0,NW,4.6,-,N/A,,Mostly Cloudy,320,2013-09-21 14:58:00
5:18 AM,68.0,66.2,94,30.02,10.0,NNW,2.3,-,N/A,,Light Drizzle,330,2013-09-21 15:18:00
5:19 AM,68.0,66.2,94,30.02,10.0,NNW,2.3,-,N/A,,Scattered Clouds,330,2013-09-21 15:19:00
5:58 AM,68.0,64.4,88,30.01,10.0,NW,3.5,-,0.00,,Partly Cloudy,320,2013-09-21 15:58:00
6:07 AM,68.0,66.2,94,30.04,10.0,Calm,Calm,-,N/A,,Light Drizzle,0,2013-09-21 16:07:00
6:08 AM,68.0,66.2,94,30.04,10.0,Variable,1.2,-,N/A,,Scattered Clouds,0,2013-09-21 16:08:00
6:58 AM,71.6,68.0,88,30.01,10.0,Variable,3.5,-,0.00,,Partly Cloudy,0,2013-09-21 16:58:00
7:56 AM,73.4,66.2,78,30.05,10.0,ENE,10.4,-,N/A,Rain,Light Rain,60,2013-09-21 17:56:00
7:57 AM,73.4,66.2,78,30.05,10.0,ENE,10.4,-,N/A,,Scattered Clouds,60,2013-09-21 17:57:00
7:58 AM,73.4,66.2,78,30.03,10.0,ENE,10.4,-,0.00,,Scattered Clouds,60,2013-09-21 17:58:00
8:04 AM,71.6,66.2,83,30.05,7.0,NNE,8.1,-,N/A,Rain,Light Rain,30,2013-09-21 18:04:00
8:05 AM,71.6,66.2,83,30.05,7.0,NE,8.1,-,N/A,,Scattered Clouds,40,2013-09-21 18:05:00
8:16 AM,73.4,66.2,78,30.05,10.0,ENE,8.1,-,N/A,,Drizzle,60,2013-09-21 18:16:00
8:17 AM,73.4,66.2,78,30.05,10.0,ENE,9.2,-,N/A,,Scattered Clouds,60,2013-09-21 18:17:00
8:35 AM,73.4,68.0,83,30.06,10.0,NE,8.1,-,N/A,,Light Drizzle,50,2013-09-21 18:35:00
8:36 AM,73.4,68.0,83,30.06,10.0,ENE,9.2,-,N/A,,Scattered Clouds,60,2013-09-21 18:36:00
8:49 AM,73.4,68.0,83,30.05,10.0,NNE,10.4,-,N/A,,Light Drizzle,30,2013-09-21 18:49:00
8:50 AM,73.4,68.0,83,30.05,10.0,NE,10.4,-,N/A,,Scattered Clouds,40,2013-09-21 18:50:00
8:58 AM,73.4,68.0,83,30.03,10.0,NE,8.1,-,0.00,,Scattered Clouds,40,2013-09-21 18:58:00
9:58 AM,75.2,66.2,73,30.03,10.0,NE,10.4,-,0.00,,Mostly Cloudy,50,2013-09-21 19:58:00
10:26 AM,75.2,68.0,78,30.06,6.0,NE,16.1,-,N/A,Rain,Light Rain,50,2013-09-21 20:26:00
10:27 AM,75.2,68.0,78,30.06,6.0,NE,15.0,-,N/A,,Haze,50,2013-09-21 20:27:00
10:58 AM,77.0,66.2,69,30.03,10.0,ENE,16.1,-,0.01,,Scattered Clouds,60,2013-09-21 20:58:00
11:58 AM,80.6,64.4,58,30.01,10.0,ENE,17.3,-,N/A,,Scattered Clouds,70,2013-09-21 21:58:00
12:05 PM,80.6,66.2,61,30.04,10.0,East,13.8,-,N/A,,Scattered Clouds,100,2013-09-21 22:05:00
12:30 PM,80.6,66.2,61,30.03,10.0,NE,13.8,-,N/A,,Light Drizzle,40,2013-09-21 22:30:00
12:31 PM,80.6,66.2,61,30.03,10.0,NE,12.7,-,N/A,,Scattered Clouds,50,2013-09-21 22:31:00
12:44 PM,80.6,66.2,61,30.02,10.0,East,15.0,-,N/A,,Light Drizzle,80,2013-09-21 22:44:00
12:45 PM,80.6,66.2,61,30.02,10.0,East,15.0,-,N/A,,Scattered Clouds,100,2013-09-21 22:45:00
12:46 PM,80.6,66.2,61,30.02,10.0,East,15.0,-,N/A,,Scattered Clouds,100,2013-09-21 22:46:00
12:58 PM,80.6,64.4,58,29.99,10.0,East,15.0,-,0.00,,Partly Cloudy,80,2013-09-21 22:58:00
1:12 PM,80.6,66.2,61,30.02,10.0,NE,12.7,20.7,N/A,,Scattered Clouds,40,2013-09-21 23:12:00
1:41 PM,80.6,64.4,58,30.01,10.0,East,18.4,25.3,N/A,,Partly Cloudy,100,2013-09-21 23:41:00
1:58 PM,78.8,64.4,61,29.98,10.0,East,15.0,-,0.00,,Partly Cloudy,90,2013-09-21 23:58:00
2:58 PM,82.4,66.2,58,29.96,10.0,ENE,20.7,-,0.00,,Scattered Clouds,60,2013-09-22 00:58:00
3:58 PM,80.6,64.4,58,29.95,10.0,ENE,19.6,-,N/A,,Partly Cloudy,70,2013-09-22 01:58:00
4:58 PM,80.6,64.4,58,29.96,10.0,East,16.1,-,N/A,,Clear,80,2013-09-22 02:58:00
5:58 PM,77.0,64.4,65,29.99,10.0,ENE,12.7,-,N/A,,Mostly Cloudy,60,2013-09-22 03:58:00
6:02 PM,77.0,64.4,65,30.01,10.0,ENE,9.2,-,N/A,,Light Drizzle,60,2013-09-22 04:02:00
6:03 PM,77.0,64.4,65,30.01,10.0,ENE,10.4,-,N/A,,Mostly Cloudy,60,2013-09-22 04:03:00
6:58 PM,73.4,64.4,73,29.99,10.0,East,2.3,-,0.00,,Mostly Cloudy,80,2013-09-22 04:58:00
7:31 PM,73.4,64.4,73,30.04,9.0,SE,5.8,-,N/A,Rain,Light Rain,140,2013-09-22 05:31:00
7:32 PM,73.4,64.4,73,30.04,9.0,Variable,6.9,-,N/A,,Overcast,0,2013-09-22 05:32:00
7:33 PM,73.4,64.4,73,30.04,8.0,ESE,4.6,-,N/A,Rain,Light Rain,120,2013-09-22 05:33:00
7:34 PM,73.4,64.4,73,30.04,8.0,Variable,3.5,-,N/A,,Overcast,0,2013-09-22 05:34:00
7:58 PM,73.4,66.2,78,30.01,10.0,NNE,4.6,-,0.00,,Overcast,20,2013-09-22 05:58:00
8:58 PM,69.8,66.2,88,30.04,10.0,West,2.3,-,N/A,,Scattered Clouds,260,2013-09-22 06:58:00
9:58 PM,73.4,64.4,73,30.04,10.0,ENE,6.9,-,N/A,,Scattered Clouds,60,2013-09-22 07:58:00
10:58 PM,73.4,64.4,73,30.03,10.0,ENE,12.7,-,N/A,,Scattered Clouds,70,2013-09-22 08:58:00
11:12 PM,73.4,66.2,78,30.06,9.0,NE,11.5,-,N/A,Rain,Light Rain,50,2013-09-22 09:12:00
11:13 PM,73.4,66.2,78,30.06,9.0,NE,11.5,-,N/A,,Scattered Clouds,50,2013-09-22 09:13:00
11:58 PM,-9999,-9999,N/A,-9999,10.0,North,6.9,-,0.01,,Scattered Clouds,10,2013-09-22 09:58:00